Regional Weather Roundup
Issued by NWS

Home | Current Version | Previous Version | Text Only | Print | Product List | Glossary Off
Versions: 1 2 3 4 5 6 7 8 9 10 11 12 13 14 15 16 17 18 19 20 21 22 23 24 25 26 27 28 29 30 31 32 33 34 35 36 37 38 39 40 41 42 43 44 45 46 47 48 49 50

000
ASUS43 KLOT 260808
RWRIL

ILLINOIS REGIONAL WEATHER ROUNDUP
NATIONAL WEATHER SERVICE CHICAGO/ROMEOVILLE IL
200 AM CST SUN FEB 26 2017

NOTE: "FAIR" INDICATES FEW OR NO CLOUDS BELOW 12,000 FEET WITH NO
SIGNIFICANT WEATHER AND/OR OBSTRUCTIONS TO VISIBILITY.

* THESE STATIONS ARE NOT UNDER NWS QUALITY CONTROL. THEY ALSO MAY NOT
  REPORT WEATHER SUCH AS PRECIPITATION OR FOG.

ILZ001-002-007-009-015-016-024-260900-
NORTHWEST ILLINOIS

CITY           SKY/WX    TMP DP  RH WIND       PRES   REMARKS
MOLINE         MOCLDY    26  17  68 CALM      30.02F
STERLING*      PTCLDY    25  21  85 VRB3      30.03
$$

ILZ003-004-008-010-011-017-018-260900-
NORTH CENTRAL ILLINOIS

CITY           SKY/WX    TMP DP  RH WIND       PRES   REMARKS
ROCKFORD       CLOUDY    25  19  78 S6        30.03F WCI  18
FREEPORT*      CLOUDY    24  20  82 S7        30.01F WCI  16
ROCHELLE*      CLOUDY    25  22  88 S7        30.04F WCI  17
DE KALB*       CLOUDY    25  19  79 SW8       30.03F WCI  16
PERU*          CLOUDY    25  19  77 S6        30.06F WCI  18
$$

ILZ005-006-012>014-019>023-260900-
NORTHEAST ILLINOIS

CITY           SKY/WX    TMP DP  RH WIND       PRES   REMARKS
CHICAGO-OHARE  PTCLDY    24  16  71 SW5       30.04S WCI  18
CHICAGO-MIDWAY MOCLDY    24  14  65 SW7       30.06R WCI  16
AURORA         CLOUDY    25  19  78 SW6       30.05S WCI  18
LANSING*       PTCLDY    19  16  88 S6        30.07S WCI  11
JOLIET*        CLOUDY    25  22  86 CALM      30.08S
WAUKEGAN       CLOUDY    21  15  78 SW7       30.01S WCI  12
DUPAGE AIRPORT CLOUDY    22  16  78 SW5       30.04R WCI  16
KANKAKEE*      CLOUDY    23  18  83 CALM      30.09S
WHEELING       PTCLDY    23  15  71 SW5       30.05S WCI  17
MORRIS*        CLOUDY    24  19  83 CALM      30.06S
ROMEOVILLE*    CLOUDY    22  21  98 SW6       30.07R WCI  14
NORTHERLY ISL    N/A     26  16  65 SW2         N/A
$$

LMZ740>746-260900-
SOUTHERN LAKE MICHIGAN

STATION/POSITION SKY/WX   TEMP    WIND        PRES    VSBY  WAVE
                          AIR SEA DIR/SP/G                  HT/PER
                          (F)     (DEG/KT/KT) (MB)    (MI)  (FT/S)
HARRISON CRIB              27     270/ 11/ 13   N/A
BURNHAM HARBOR             26     240/  6/  9   N/A
CALUMET HARBOR             25     200/  4/  5 1017.3S
BURNS HARBOR               26     210/  8/ 10 1018.6R
MICHIGAN CITY              28     250/ 12/ 13   N/A
$$

ILZ025>027-034>036-040-047-049-050-058-095>099-260900-
WEST-CENTRAL ILLINOIS

CITY           SKY/WX    TMP DP  RH WIND       PRES   REMARKS
QUINCY         CLOUDY    29  15  56 S10       30.04F WCI  20
GALESBURG*     CLOUDY    24  19  81 SE5       30.03F WCI  18
MACOMB*        CLOUDY    26  20  80 S8        30.06F WCI  17
JACKSONVILLE*  PTCLDY    25  13  59 S7        30.08F WCI  18
PITTSFIELD*    MOCLDY    26  17  69 S6        30.08F WCI  19
$$

ILZ028>032-037-038-041>044-048-051>054-059>061-260900-
CENTRAL ILLINOIS

CITY           SKY/WX    TMP DP  RH WIND       PRES   REMARKS
PONTIAC        PTCLDY    24  21  85 SW3       30.09F
BLOOMINGTON    PTCLDY    19  15  84 S7        30.08F WCI  10
DECATUR        CLEAR     22  13  68 SW3       30.11S
PEORIA         CLEAR     24  18  77 S6        30.07F WCI  17
LACON*         CLEAR     24  18  75 S5        30.05F WCI  19
LINCOLN*       CLEAR     21  16  81 S3        30.10F
SPRINGFIELD    CLEAR     22  13  68 S5        30.10F WCI  16
TAYLORVILLE    CLEAR     21  14  73 SE5       30.11F WCI  15
$$

ILZ033-039-045-046-055>057-062-063-260900-
EAST-CENTRAL ILLINOIS

CITY           SKY/WX    TMP DP  RH WIND       PRES   REMARKS
CHAMPAIGN      CLEAR     20  12  71 W3        30.10F
RANTOUL*       PTCLDY    23  19  83 W3        30.10F
MATTOON        CLEAR     25  15  66 SW5       30.11S WCI  19
PARIS*         CLEAR     20  15  79 SW3       30.13S
$$

ILZ079-100>102-260900-
SOUTHWEST ILLINOIS

CITY           SKY/WX    TMP DP  RH WIND       PRES   REMARKS
ALTON          CLEAR     20  18  89 CALM      30.11F
BELLEVILLE     CLEAR     22  18  85 CALM      30.12F
CAHOKIA*       CLEAR     23  15  71 S3        30.12F
SPARTA*        CLEAR     22  19  87 CALM      30.15F
$$

ILZ064>066-069>071-074>076-080>082-084>086-088>090-092>094-260900-
SOUTH-CENTRAL ILLINOIS

CITY           SKY/WX    TMP DP  RH WIND       PRES   REMARKS
CARBONDALE     CLEAR     22  19  89 CALM      30.15F
CAIRO*         CLEAR     27  19  74 CALM      30.17S
EFFINGHAM*     CLEAR     23  20  88 CALM      30.15F
MARION         CLEAR     23  16  74 CALM      30.17S
MT. VERNON     CLEAR     19  17  92 CALM      30.15F
CENTRALIA*     CLEAR     23  20  89 CALM      30.13S
SALEM*         CLEAR     25  19  76 CALM      30.13F
METROPOLIS*    CLEAR     25  20  84 CALM      30.19R
$$

ILZ067-068-072-073-078-083-087-091-260900-
SOUTHEAST ILLINOIS

CITY           SKY/WX    TMP DP  RH WIND       PRES   REMARKS
LAWRENCEVILLE  PTCLDY    26  17  68 CALM      30.16S
FLORA*         CLEAR     23  18  81 CALM      30.16S
FAIRFIELD*     CLEAR     24  19  80 CALM      30.15F
HARRISBURG*    CLEAR     25  22  87 CALM      30.17S
ROBINSON*      CLEAR     20  17  86 CALM      30.16S
CARMI*         CLEAR     23  20  90 CALM      30.16S
$$

ABBREVIATIONS USED IN REMARKS
   TC - TEMPERATURE IN CELSIUS
  WCI - WIND CHILL INDEX
   HX - HEAT INDEX
  VSB - VISIBILITY
$$





USA.gov is the U.S. government's official web portal to all federal, state and local government web resources and services.